SCP
0 0 0 0 0 0 0 0 0 1 1 1 1 1 1 0 0 0 0 0 0 0 0 -0 -0 0 0 0 0 0 0 0 0 0 0 0 0 0 0 0 0 0 0
0 0 0 0 0 0 0 0 0 0 0 0 0 0 0 0 0 0 0 0 0 0 0 0 0 0 0 0 0 0 0 0 0 0 0 0 0 0 0 0 0 0 0
0 0 0 0 0 0 0 0 0 0 0 0 0 0 0 0 0 0 0 0 0 0 0 1 0 0 1 1 1 1 0 0 0 0 0 0 0 0 0 0 0 0 0
0 0 0 0 0 0 0 0 0 0 0 0 0 0 0 0 0 0 0 0 0 0 1 2 2 1 1 2 1 1 1 0 0 0 0 -0 0 0 0 0 0 0 0
0 0 0 0 0 0 0 0 0 0 0 0 0 0 0 0 0 0 1 1 1 1 1 1 3 3 3 3 2 2 2 1 1 0 0 0 1 1 1 0 0 0 0
0 0 0 0 0 0 0 0 0 0 0 0 0 0 0 0 0 0 1 1 2 2 3 3 2 3 4 3 2 2 1 1 1 1 1 1 1 0 0 0 0 0 0
0 0 0 0 0 0 0 0 0 0 0 0 0 0 0 0 0 0 2 1 2 2 3 3 4 4 3 2 2 1 1 1 1 1 1 1 0 0 0 0 0 0 0
0 0 0 0 0 0 0 0 0 0 0 0 0 0 0 0 0 0 1 2 2 2 2 2 4 3 2 2 2 1 1 1 1 1 0 0 0 0 0 0 0 0 0
0 0 0 0 0 0 0 0 0 0 0 0 0 0 0 0 0 1 1 2 2 2 2 2 3 2 2 2 1 1 1 1 1 0 0 0 0 0 0 0 0 0 0
0 0 0 0 0 0 0 1 0 0 0 0 0 0 0 0 0 0 1 1 2 2 3 1 2 2 2 2 1 1 1 0 0 0 0 0 0 0 0 0 0 0 0
0 0 0 0 0 0 0 0 0 1 1 0 0 0 0 0 0 0 0 1 1 2 1 2 3 3 1 1 1 0 0 0 0 0 0 0 0 0 0 0 0 0 0
0 0 0 0 0 0 0 0 0 0 1 1 0 0 0 0 0 0 0 0 0 0 0 1 1 1 1 1 0 0 0 0 0 0 0 0 0 0 0 0 0 0 0
0 0 0 0 0 0 0 0 0 0 0 1 1 0 0 0 0 0 0 0 0 0 0 0 0 1 1 0 0 0 0 0 0 0 0 0 0 0 0 0 0 0 0
0 0 0 0 0 0 0 0 0 0 0 1 1 1 0 0 0 0 0 0 0 0 0 0 0 0 0 0 0 0 0 0 0 0 0 0 0 0 0 0 0 0 0
0 0 0 0 0 0 0 0 0 0 0 0 1 1 1 0 0 0 0 0 0 0 0 0 0 0 0 0 0 0 0 0 0 0 0 0 0 0 0 0 0 0 0
0 0 0 0 0 0 0 0 0 0 0 0 0 0 0 0 0 0 0 0 0 0 0 0 0 0 0 0 0 0 0 0 0 0 0 0 0 0 0 0 0 0 0
0 0 0 0 0 0 0 0 0 0 0 0 0 0 0 0 0 0 0 0 0 0 0 0 0 0 0 0 0 0 0 0 0 0 0 0 0 0 0 0 0 0 0
0 0 0 0 0 0 0 0 0 0 0 0 0 0 0 0 0 0 0 0 0 0 0 0 0 0 0 0 0 0 0 0 0 0 0 0 0 0 0 0 0 0 0
0 0 0 0 0 0 0 -0 -0 0 0 0 0 0 0 0 0 0 0 0 0 0 0 0 0 0 0 0 0 0 0 0 0 0 0 0 0 0 0 0 0 0 0
0 0 0 0 0 0 -0 -0 0 -0 0 0 0 0 0 0 0 0 0 0 -0 -0 0 0 0 0 0 0 0 0 0 0 0 0 0 0 0 0 0 0 0 0 0
0 0 0 0 0 0 0 -0 -0 0 0 0 0 0 0 0 0 0 0 0 -0 -0 -0 0 0 0 0 0 0 0 0 0 0 0 0 0 0 0 0 0 0 0 0
0 0 0 0 0 0 0 -0 -0 0 0 0 0 0 0 0 0 0 0 0 0 0 0 0 0 0 0 0 0 0 0 -0 0 0 0 0 0 0 0 0 -0 -0 0
0 0 0 0 0 0 -0 -0 -0 0 0 0 0 0 0 0 0 0 0 0 0 0 0 0 0 0 0 0 0 0 0 -0 -0 -0 0 0 0 0 0 0 -0 -0 -0
0 0 0 0 0 0 -0 -0 -0 0 0 -0 0 0 0 0 0 0 0 0 0 0 0 0 0 0 -0 0 0 0 -0 -0 -0 0 0 -0 0 0 0 0 -0 0 0
0 0 -0 0 0 -0 -0 -0 -0 -0 -0 0 0 0 0 0 0 0 0 0 0 0 0 -0 0 0 0 -0 0 0 0 0 0 -0 0 -0 0 -0 0 -0 -0 -0 0
0 0 0 -0 -0 -0 -0 -0 -0 0 -0 0 0 0 0 0 0 0 0 0 0 0 0 0 0 0 0 0 -0 -0 -0 -0 -0 -0 0 -0 -0 -0 0 -0 -0 0 0
Wind_Speed_500mb
21 21 24 25 27 26 26 27 26 29 29 27 33 30 28 28 27 26 24 36 31 30 30 30 30 31 23 25 26 28 26 26 27 22 19 19 19 20 20 22 26 25 30
27 23 25 26 26 25 25 25 25 25 26 24 27 25 25 25 25 26 24 25 35 30 30 29 30 34 28 27 24 22 24 24 25 24 24 25 26 26 26 21 23 36 37
28 29 28 30 28 27 30 26 24 26 24 25 24 22 22 23 23 25 27 26 27 34 38 32 28 33 34 33 31 29 20 20 21 22 25 27 25 25 25 25 28 40 32
24 24 33 31 28 27 27 27 26 26 27 25 26 25 25 23 24 26 25 25 24 24 28 40 36 32 33 36 38 31 24 21 21 23 22 20 20 21 22 24 25 27 21
25 28 32 32 27 30 32 30 30 27 28 25 27 27 24 24 25 24 23 20 20 20 22 35 33 33 35 37 38 32 25 22 21 18 19 22 22 20 21 23 17 20 10
36 30 36 34 32 33 34 33 38 35 28 23 26 25 20 19 19 21 21 15 16 12 14 16 16 27 32 32 32 30 25 22 21 23 20 21 21 20 18 16 15 13 12
34 60 38 39 37 38 36 32 32 33 34 35 36 40 43 33 15 13 17 17 12 7 7 29 23 20 24 26 24 22 21 21 19 16 16 18 18 14 14 13 13 15 15
49 62 44 45 43 43 38 35 32 37 40 38 37 41 45 40 31 32 19 15 11 14 17 16 18 21 22 17 14 14 13 13 11 10 6 7 11 10 8 8 15 16 17
51 55 59 60 48 46 56 48 44 40 45 44 37 39 40 45 44 34 24 13 11 8 15 22 13 13 20 20 15 12 13 14 9 10 14 12 10 10 9 11 13 18 22
65 57 51 48 47 48 53 55 54 52 44 45 39 37 37 43 35 41 30 31 17 4 11 14 17 17 20 22 20 21 16 13 9 7 11 12 9 5 9 12 17 22 25
60 59 57 52 50 52 54 50 50 52 58 50 49 42 37 35 39 54 49 34 25 28 9 16 23 19 15 23 27 21 12 8 5 4 6 7 8 10 13 19 23 23 23
55 48 46 48 46 46 47 50 52 56 52 58 56 42 40 36 30 40 49 48 34 50 16 16 21 22 24 25 24 23 19 14 9 6 8 10 12 14 17 21 21 20 24
52 49 46 45 47 48 51 49 46 50 58 59 58 58 42 37 36 34 41 34 34 35 33 24 18 28 31 25 25 24 21 12 10 13 17 16 17 17 17 16 16 18 22
46 42 43 44 43 43 47 50 47 46 46 58 55 53 42 36 32 30 37 35 32 29 20 23 31 30 31 28 25 24 20 16 11 9 12 11 10 10 13 15 17 23 25
42 43 46 45 43 41 42 43 44 43 36 44 54 47 42 33 27 28 27 19 34 18 26 27 33 35 30 24 23 21 17 10 7 10 6 3 4 6 10 14 20 23 25
49 54 48 47 47 43 42 39 38 37 34 33 35 39 32 30 27 18 24 21 24 26 13 19 15 38 31 23 22 21 12 7 2 3 3 4 5 7 14 18 20 23 25
52 50 52 52 49 41 37 34 32 38 33 29 29 37 39 37 30 37 27 27 23 26 19 14 22 21 28 27 19 14 9 8 8 6 9 7 9 12 15 19 21 24 25
62 53 55 48 46 34 35 33 31 28 40 38 21 23 23 26 30 32 38 32 34 30 27 23 25 19 28 26 20 16 18 11 6 6 7 10 13 14 16 18 23 21 18
52 51 47 45 38 29 36 33 29 27 28 40 35 29 28 24 25 27 32 38 39 44 36 29 29 33 36 33 28 22 17 14 7 3 7 8 9 13 15 22 28 26 20
48 43 39 36 34 34 31 32 26 23 23 24 36 39 37 32 32 31 31 32 35 38 41 38 33 41 39 34 32 26 23 16 12 6 3 6 8 10 19 30 31 30 25
42 39 36 34 31 30 25 25 23 24 20 20 22 28 32 31 32 31 26 24 28 36 38 44 38 44 47 45 45 35 27 19 15 14 8 11 12 26 21 21 28 31 29
40 38 32 30 26 25 26 26 25 23 20 21 22 24 29 30 31 29 26 26 19 27 35 41 42 48 51 47 49 39 30 27 18 17 16 13 14 15 13 22 30 35 31
41 38 36 26 22 22 15 15 20 21 23 20 21 21 24 22 24 21 26 25 20 19 29 33 42 42 44 52 50 38 32 26 26 22 19 13 10 10 14 25 30 34 32
41 33 39 20 23 20 21 22 18 20 19 21 23 23 26 23 23 23 27 20 20 20 24 29 32 29 32 32 33 37 36 35 21 20 20 14 11 5 14 23 30 33 34
34 24 34 23 20 19 23 18 25 21 20 25 22 26 29 24 25 23 17 16 19 22 25 30 30 26 36 12 36 40 41 32 25 27 18 19 7 5 7 21 23 28 31
30 24 32 7 16 19 15 25 25 26 23 28 26 25 27 25 30 24 18 17 20 27 33 40 25 31 12 21 30 23 28 30 33 26 23 9 8 4 6 14 19 20 22
Wind_Direction_500mb
344 341 329 328 317 312 307 301 285 282 263 267 260 264 264 263 267 273 270 276 265 263 265 268 253 246 252 241 247 251 251 260 253 266 270 278 276 273 264 258 261 270 270
333 336 329 320 317 313 306 303 289 284 278 266 262 259 264 260 268 267 270 267 281 266 266 267 257 246 243 240 239 243 244 252 253 267 274 285 275 271 266 267 271 267 252
332 336 323 321 314 312 313 309 304 299 289 282 273 273 273 268 268 267 274 273 268 283 262 262 255 239 238 232 231 237 250 257 253 268 269 275 269 266 266 263 267 280 238
325 335 321 315 316 318 314 306 301 296 289 288 280 279 268 275 273 274 278 266 266 256 277 253 246 243 239 233 231 237 252 253 262 267 270 270 274 267 260 260 262 274 232
317 316 316 305 313 315 309 306 299 295 288 292 290 284 277 281 275 271 261 268 266 251 237 266 239 236 238 233 232 239 245 250 258 255 258 268 267 263 256 258 260 233 261
306 305 306 299 292 298 301 301 291 287 289 292 281 280 295 295 269 262 253 251 245 229 217 220 245 230 226 225 226 231 236 244 250 256 256 255 253 253 252 228 217 238 270
300 302 302 295 291 290 289 287 294 290 289 286 283 279 280 294 276 250 222 230 211 202 186 216 180 195 205 205 213 226 237 245 249 246 243 236 240 241 213 219 246 269 272
300 295 295 294 290 286 287 282 280 282 282 288 281 280 276 269 253 248 233 231 202 203 208 207 197 196 178 182 193 212 221 222 228 223 203 155 163 177 203 246 251 257 271
301 297 295 293 289 284 283 275 273 274 279 281 279 272 274 260 265 250 235 204 210 216 218 218 196 191 182 178 169 161 142 143 147 159 171 180 200 217 235 233 257 279 280
296 297 296 293 289 283 277 274 266 266 265 271 272 265 263 260 268 251 231 229 233 232 182 196 198 201 188 187 182 157 166 171 174 174 182 182 192 223 247 264 280 284 286
295 291 290 288 285 281 277 271 269 260 257 262 267 264 257 259 249 249 247 242 226 239 233 200 213 207 180 166 162 174 198 202 165 185 229 246 257 269 284 284 284 282 283
294 295 293 289 286 282 280 275 271 264 256 248 253 253 256 254 255 237 244 243 239 256 261 230 199 212 209 188 188 182 191 205 188 212 254 255 269 276 286 296 295 295 298
299 296 294 296 290 284 277 273 273 266 257 243 235 249 249 251 258 256 249 245 253 253 240 234 213 206 206 194 185 192 190 198 229 258 269 272 281 287 292 301 301 306 310
299 297 296 298 301 298 289 277 271 272 255 245 235 228 241 244 245 246 242 246 226 227 226 210 204 186 201 187 188 186 190 184 225 270 275 261 276 288 293 307 315 320 318
293 292 288 290 291 288 291 291 270 267 260 245 232 228 223 224 239 239 239 240 231 231 216 222 171 188 189 186 191 180 178 192 194 280 302 301 311 325 329 331 332 332 330
299 298 293 291 291 288 289 286 273 261 255 243 229 217 212 217 214 221 239 243 237 236 238 236 174 176 185 181 174 178 175 164 135 80 90 48 1 5 345 350 350 354 354
299 297 298 295 287 286 281 289 281 258 252 244 225 232 227 231 236 242 249 234 234 242 232 227 218 189 186 178 183 173 169 160 142 80 45 27 11 12 9 8 3 360 355
301 301 297 299 289 273 274 275 279 269 247 235 222 228 228 236 244 238 238 240 236 228 228 217 197 226 203 191 189 187 159 174 165 105 63 31 22 22 31 25 10 3 0
304 305 299 299 285 264 267 273 272 267 251 236 224 213 209 221 232 236 244 244 236 232 231 226 208 205 214 199 189 190 174 162 157 81 32 40 45 48 39 26 19 12 3
313 310 302 292 284 267 267 273 257 259 256 236 232 240 245 231 233 237 241 243 228 220 219 219 223 216 212 202 199 201 177 165 143 144 112 64 61 59 41 25 21 13 14
318 310 303 285 278 265 249 258 260 243 242 227 220 211 217 223 232 232 238 233 219 208 208 209 208 207 210 203 199 191 187 181 182 161 174 119 96 65 36 5 17 12 8
322 320 305 284 268 258 264 244 237 248 226 218 209 212 221 220 220 228 230 219 207 205 202 204 202 209 214 205 201 194 195 194 180 191 179 129 101 76 45 29 17 11 9
317 320 317 280 252 251 241 220 218 223 220 212 201 201 198 196 199 208 207 218 211 203 203 204 199 204 210 207 208 199 215 211 204 187 165 135 110 85 45 24 16 13 16
308 308 321 280 242 237 225 222 209 208 207 200 195 187 193 190 191 196 207 214 215 225 208 198 198 198 214 212 224 217 202 190 183 169 154 121 112 91 44 13 18 21 27
330 316 317 293 228 233 217 208 192 197 190 185 184 184 187 187 186 189 192 200 212 205 208 193 187 197 190 178 178 183 190 180 167 153 143 134 154 110 51 35 360 23 30
327 321 319 266 216 211 207 201 195 195 201 196 185 172 179 182 197 206 207 222 227 188 189 181 202 190 155 156 159 177 187 184 159 146 155 124 160 141 89 41 29 32 13
Wind_Speed_850mb
21 21 24 25 27 26 26 27 26 29 29 27 33 30 28 28 27 26 24 36 31 30 30 30 30 31 23 25 26 28 26 26 27 22 19 19 19 20 20 22 26 25 30
27 23 25 26 26 25 25 25 25 25 26 24 27 25 25 25 25 26 24 25 35 30 30 29 30 34 28 27 24 22 24 24 25 24 24 25 26 26 26 21 23 36 37
28 29 28 30 28 27 30 26 24 26 24 25 24 22 22 23 23 25 27 26 27 34 38 32 28 33 34 33 31 29 20 20 21 22 25 27 25 25 25 25 28 40 32
24 24 33 31 28 27 27 27 26 26 27 25 26 25 25 23 24 26 25 25 24 24 28 40 36 32 33 36 38 31 24 21 21 23 22 20 20 21 22 24 25 27 21
25 28 32 32 27 30 32 30 30 27 28 25 27 27 24 24 25 24 23 20 20 20 22 35 33 33 35 37 38 32 25 22 21 18 19 22 22 20 21 23 17 20 10
36 30 36 34 32 33 34 33 38 35 28 23 26 25 20 19 19 21 21 15 16 12 14 16 16 27 32 32 32 30 25 22 21 23 20 21 21 20 18 16 15 13 12
34 60 38 39 37 38 36 32 32 33 34 35 36 40 43 33 15 13 17 17 12 7 7 29 23 20 24 26 24 22 21 21 19 16 16 18 18 14 14 13 13 15 15
49 62 44 45 43 43 38 35 32 37 40 38 37 41 45 40 31 32 19 15 11 14 17 16 18 21 22 17 14 14 13 13 11 10 6 7 11 10 8 8 15 16 17
51 55 59 60 48 46 56 48 44 40 45 44 37 39 40 45 44 34 24 13 11 8 15 22 13 13 20 20 15 12 13 14 9 10 14 12 10 10 9 11 13 18 22
65 57 51 48 47 48 53 55 54 52 44 45 39 37 37 43 35 41 30 31 17 4 11 14 17 17 20 22 20 21 16 13 9 7 11 12 9 5 9 12 17 22 25
60 59 57 52 50 52 54 50 50 52 58 50 49 42 37 35 39 54 49 34 25 28 9 16 23 19 15 23 27 21 12 8 5 4 6 7 8 10 13 19 23 23 23
55 48 46 48 46 46 47 50 52 56 52 58 56 42 40 36 30 40 49 48 34 50 16 16 21 22 24 25 24 23 19 14 9 6 8 10 12 14 17 21 21 20 24
52 49 46 45 47 48 51 49 46 50 58 59 58 58 42 37 36 34 41 34 34 35 33 24 18 28 31 25 25 24 21 12 10 13 17 16 17 17 17 16 16 18 22
46 42 43 44 43 43 47 50 47 46 46 58 55 53 42 36 32 30 37 35 32 29 20 23 31 30 31 28 25 24 20 16 11 9 12 11 10 10 13 15 17 23 25
42 43 46 45 43 41 42 43 44 43 36 44 54 47 42 33 27 28 27 19 34 18 26 27 33 35 30 24 23 21 17 10 7 10 6 3 4 6 10 14 20 23 25
49 54 48 47 47 43 42 39 38 37 34 33 35 39 32 30 27 18 24 21 24 26 13 19 15 38 31 23 22 21 12 7 2 3 3 4 5 7 14 18 20 23 25
52 50 52 52 49 41 37 34 32 38 33 29 29 37 39 37 30 37 27 27 23 26 19 14 22 21 28 27 19 14 9 8 8 6 9 7 9 12 15 19 21 24 25
62 53 55 48 46 34 35 33 31 28 40 38 21 23 23 26 30 32 38 32 34 30 27 23 25 19 28 26 20 16 18 11 6 6 7 10 13 14 16 18 23 21 18
52 51 47 45 38 29 36 33 29 27 28 40 35 29 28 24 25 27 32 38 39 44 36 29 29 33 36 33 28 22 17 14 7 3 7 8 9 13 15 22 28 26 20
48 43 39 36 34 34 31 32 26 23 23 24 36 39 37 32 32 31 31 32 35 38 41 38 33 41 39 34 32 26 23 16 12 6 3 6 8 10 19 30 31 30 25
42 39 36 34 31 30 25 25 23 24 20 20 22 28 32 31 32 31 26 24 28 36 38 44 38 44 47 45 45 35 27 19 15 14 8 11 12 26 21 21 28 31 29
40 38 32 30 26 25 26 26 25 23 20 21 22 24 29 30 31 29 26 26 19 27 35 41 42 48 51 47 49 39 30 27 18 17 16 13 14 15 13 22 30 35 31
41 38 36 26 22 22 15 15 20 21 23 20 21 21 24 22 24 21 26 25 20 19 29 33 42 42 44 52 50 38 32 26 26 22 19 13 10 10 14 25 30 34 32
41 33 39 20 23 20 21 22 18 20 19 21 23 23 26 23 23 23 27 20 20 20 24 29 32 29 32 32 33 37 36 35 21 20 20 14 11 5 14 23 30 33 34
34 24 34 23 20 19 23 18 25 21 20 25 22 26 29 24 25 23 17 16 19 22 25 30 30 26 36 12 36 40 41 32 25 27 18 19 7 5 7 21 23 28 31
30 24 32 7 16 19 15 25 25 26 23 28 26 25 27 25 30 24 18 17 20 27 33 40 25 31 12 21 30 23 28 30 33 26 23 9 8 4 6 14 19 20 22
Wind_Direction_850mb
344 341 329 328 317 312 307 301 285 282 263 267 260 264 264 263 267 273 270 276 265 263 265 268 253 246 252 241 247 251 251 260 253 266 270 278 276 273 264 258 261 270 270
333 336 329 320 317 313 306 303 289 284 278 266 262 259 264 260 268 267 270 267 281 266 266 267 257 246 243 240 239 243 244 252 253 267 274 285 275 271 266 267 271 267 252
332 336 323 321 314 312 313 309 304 299 289 282 273 273 273 268 268 267 274 273 268 283 262 262 255 239 238 232 231 237 250 257 253 268 269 275 269 266 266 263 267 280 238
325 335 321 315 316 318 314 306 301 296 289 288 280 279 268 275 273 274 278 266 266 256 277 253 246 243 239 233 231 237 252 253 262 267 270 270 274 267 260 260 262 274 232
317 316 316 305 313 315 309 306 299 295 288 292 290 284 277 281 275 271 261 268 266 251 237 266 239 236 238 233 232 239 245 250 258 255 258 268 267 263 256 258 260 233 261
306 305 306 299 292 298 301 301 291 287 289 292 281 280 295 295 269 262 253 251 245 229 217 220 245 230 226 225 226 231 236 244 250 256 256 255 253 253 252 228 217 238 270
300 302 302 295 291 290 289 287 294 290 289 286 283 279 280 294 276 250 222 230 211 202 186 216 180 195 205 205 213 226 237 245 249 246 243 236 240 241 213 219 246 269 272
300 295 295 294 290 286 287 282 280 282 282 288 281 280 276 269 253 248 233 231 202 203 208 207 197 196 178 182 193 212 221 222 228 223 203 155 163 177 203 246 251 257 271
301 297 295 293 289 284 283 275 273 274 279 281 279 272 274 260 265 250 235 204 210 216 218 218 196 191 182 178 169 161 142 143 147 159 171 180 200 217 235 233 257 279 280
296 297 296 293 289 283 277 274 266 266 265 271 272 265 263 260 268 251 231 229 233 232 182 196 198 201 188 187 182 157 166 171 174 174 182 182 192 223 247 264 280 284 286
295 291 290 288 285 281 277 271 269 260 257 262 267 264 257 259 249 249 247 242 226 239 233 200 213 207 180 166 162 174 198 202 165 185 229 246 257 269 284 284 284 282 283
294 295 293 289 286 282 280 275 271 264 256 248 253 253 256 254 255 237 244 243 239 256 261 230 199 212 209 188 188 182 191 205 188 212 254 255 269 276 286 296 295 295 298
299 296 294 296 290 284 277 273 273 266 257 243 235 249 249 251 258 256 249 245 253 253 240 234 213 206 206 194 185 192 190 198 229 258 269 272 281 287 292 301 301 306 310
299 297 296 298 301 298 289 277 271 272 255 245 235 228 241 244 245 246 242 246 226 227 226 210 204 186 201 187 188 186 190 184 225 270 275 261 276 288 293 307 315 320 318
293 292 288 290 291 288 291 291 270 267 260 245 232 228 223 224 239 239 239 240 231 231 216 222 171 188 189 186 191 180 178 192 194 280 302 301 311 325 329 331 332 332 330
299 298 293 291 291 288 289 286 273 261 255 243 229 217 212 217 214 221 239 243 237 236 238 236 174 176 185 181 174 178 175 164 135 80 90 48 1 5 345 350 350 354 354
299 297 298 295 287 286 281 289 281 258 252 244 225 232 227 231 236 242 249 234 234 242 232 227 218 189 186 178 183 173 169 160 142 80 45 27 11 12 9 8 3 360 355
301 301 297 299 289 273 274 275 279 269 247 235 222 228 228 236 244 238 238 240 236 228 228 217 197 226 203 191 189 187 159 174 165 105 63 31 22 22 31 25 10 3 0
304 305 299 299 285 264 267 273 272 267 251 236 224 213 209 221 232 236 244 244 236 232 231 226 208 205 214 199 189 190 174 162 157 81 32 40 45 48 39 26 19 12 3
313 310 302 292 284 267 267 273 257 259 256 236 232 240 245 231 233 237 241 243 228 220 219 219 223 216 212 202 199 201 177 165 143 144 112 64 61 59 41 25 21 13 14
318 310 303 285 278 265 249 258 260 243 242 227 220 211 217 223 232 232 238 233 219 208 208 209 208 207 210 203 199 191 187 181 182 161 174 119 96 65 36 5 17 12 8
322 320 305 284 268 258 264 244 237 248 226 218 209 212 221 220 220 228 230 219 207 205 202 204 202 209 214 205 201 194 195 194 180 191 179 129 101 76 45 29 17 11 9
317 320 317 280 252 251 241 220 218 223 220 212 201 201 198 196 199 208 207 218 211 203 203 204 199 204 210 207 208 199 215 211 204 187 165 135 110 85 45 24 16 13 16
308 308 321 280 242 237 225 222 209 208 207 200 195 187 193 190 191 196 207 214 215 225 208 198 198 198 214 212 224 217 202 190 183 169 154 121 112 91 44 13 18 21 27
330 316 317 293 228 233 217 208 192 197 190 185 184 184 187 187 186 189 192 200 212 205 208 193 187 197 190 178 178 183 190 180 167 153 143 134 154 110 51 35 360 23 30
327 321 319 266 216 211 207 201 195 195 201 196 185 172 179 182 197 206 207 222 227 188 189 181 202 190 155 156 159 177 187 184 159 146 155 124 160 141 89 41 29 32 13